Location: Clifton Park
(41.4873°N, 81.8024°W)
Time: 16:05:31
(UTC+00:00)

SL-8 Rocket - Pass Details

Date: 21 January 2020
Orbit: 956 x 991 km, 82.9° (Epoch: 18 February)

Event Time Altitude Azimuth Distance (km) Brightness Sun altitude
Rises 11:14:56 0° 352° (N) 3,672 6.8 -17.3°
Reaches altitude 10° 11:17:27 10° 352° (N) 2,716 6.1 -16.9°
Maximum altitude 11:23:41 87° 266° (W) 969 3.9 -15.7°
Drops below altitude 10° 11:29:50 10° 176° (S) 2,681 6.5 -14.6°
Sets 11:32:18 0° 176° (S) 3,621 7.2 -14.2°
